SQI19 KSFO-KLAX

Flight info

Callsign SQI19
Flight time 0h 52m
Altitude 41000
Route WESLA5 SUSEY EBAYE BURGL IRNMN2
Aircraft B748/H-SDE3FGHIM1M2RWXY/LB1

Departure

Time 2026-04-24 03:48
Airport San Francisco International Airport (KSFO)

Arrival

Time 2026-04-24 04:40
Airport Los Angeles International Airport (KLAX)
Time Latitude Longitude Altitude Speed Heading
2026-04-24 03:37 37.62678 -122.38159 22 ft 0 kts 118°
2026-04-24 03:42 37.62678 -122.38158 27 ft 1 kts 118°
2026-04-24 03:42 37.62652 -122.38119 25 ft 4 kts 147°
2026-04-24 03:43 37.62633 -122.38113 27 ft 2 kts 174°
2026-04-24 03:43 37.62604 -122.38125 27 ft 8 kts 204°
2026-04-24 03:43 37.62538 -122.38130 28 ft 10 kts 154°
2026-04-24 03:43 37.62480 -122.38033 30 ft 20 kts 122°
2026-04-24 03:44 37.62411 -122.37832 28 ft 31 kts 117°
2026-04-24 03:44 37.62289 -122.37572 30 ft 35 kts 120°
2026-04-24 03:44 37.62170 -122.37291 21 ft 38 kts 117°
2026-04-24 03:44 37.62048 -122.36998 26 ft 38 kts 118°
2026-04-24 03:45 37.61926 -122.36708 27 ft 37 kts 118°
2026-04-24 03:45 37.61804 -122.36421 31 ft 38 kts 118°
2026-04-24 03:45 37.61676 -122.36113 29 ft 40 kts 117°
2026-04-24 03:45 37.61551 -122.35807 27 ft 39 kts 117°
2026-04-24 03:46 37.61500 -122.35706 27 ft 0 kts 139°
2026-04-24 03:46 37.61499 -122.35704 27 ft 2 kts 139°
2026-04-24 03:46 37.61459 -122.35682 28 ft 9 kts 170°
2026-04-24 03:46 37.61386 -122.35721 27 ft 14 kts 230°
2026-04-24 03:47 37.61392 -122.35817 30 ft 12 kts 291°
2026-04-24 03:47 37.61507 -122.36100 27 ft 74 kts 297°
2026-04-24 03:47 37.61865 -122.36941 28 ft 139 kts 298°
2026-04-24 03:47 37.62397 -122.38108 405 ft 166 kts 297°
2026-04-24 03:48 37.62970 -122.39541 625 ft 202 kts 294°
2026-04-24 03:48 37.63640 -122.41272 899 ft 231 kts 296°
2026-04-24 03:48 37.64398 -122.43140 2030 ft 237 kts 297°
2026-04-24 03:48 37.65180 -122.45006 2983 ft 244 kts 297°
2026-04-24 03:49 37.65955 -122.46862 2985 ft 235 kts 297°
2026-04-24 03:49 37.66457 -122.48085 2993 ft 235 kts 295°
2026-04-24 03:49 37.66720 -122.50874 3354 ft 256 kts 256°
2026-04-24 03:49 37.65823 -122.52811 4466 ft 262 kts 224°
2026-04-24 03:50 37.64249 -122.53989 5718 ft 270 kts 195°
2026-04-24 03:50 37.62366 -122.54088 6949 ft 276 kts 167°
2026-04-24 03:50 37.61144 -122.53536 7719 ft 279 kts 153°
2026-04-24 03:50 37.59412 -122.52382 8851 ft 283 kts 151°
2026-04-24 03:51 37.57613 -122.51330 10024 ft 288 kts 156°
2026-04-24 03:51 37.55675 -122.50463 10836 ft 304 kts 160°
2026-04-24 03:51 37.53626 -122.49605 11496 ft 325 kts 159°
2026-04-24 03:51 37.51423 -122.48603 12204 ft 346 kts 158°
2026-04-24 03:52 37.49182 -122.47338 13058 ft 359 kts 145°
2026-04-24 03:52 37.47285 -122.45272 14175 ft 364 kts 133°
2026-04-24 03:52 37.45573 -122.42907 15167 ft 371 kts 130°
2026-04-24 03:52 37.43843 -122.40416 16190 ft 379 kts 131°
2026-04-24 03:53 37.42035 -122.37950 17204 ft 386 kts 133°
2026-04-24 03:53 37.40170 -122.35476 18187 ft 394 kts 133°
2026-04-24 03:53 37.38282 -122.32923 19066 ft 402 kts 133°
2026-04-24 03:53 37.36376 -122.30308 19910 ft 409 kts 133°
2026-04-24 03:54 37.34428 -122.27654 20784 ft 416 kts 134°
2026-04-24 03:54 37.32440 -122.24973 21634 ft 423 kts 134°
2026-04-24 03:54 37.30420 -122.22247 22441 ft 430 kts 134°
2026-04-24 03:54 37.28375 -122.19473 23215 ft 436 kts 135°
2026-04-24 03:55 37.26293 -122.16655 23925 ft 443 kts 135°
2026-04-24 03:55 37.24177 -122.13799 24560 ft 449 kts 135°
2026-04-24 03:55 37.22035 -122.10911 25190 ft 454 kts 135°
2026-04-24 03:55 37.19870 -122.07990 25812 ft 459 kts 135°
2026-04-24 03:56 37.17707 -122.05075 26425 ft 464 kts 135°
2026-04-24 03:56 37.15492 -122.02095 27044 ft 469 kts 136°
2026-04-24 03:56 37.13251 -121.99083 27645 ft 475 kts 136°
2026-04-24 03:56 37.10987 -121.96040 28245 ft 480 kts 136°
2026-04-24 03:57 37.08698 -121.92968 28844 ft 485 kts 136°
2026-04-24 03:57 37.06388 -121.89871 29435 ft 490 kts 136°
2026-04-24 03:57 37.04049 -121.86738 30026 ft 495 kts 136°
2026-04-24 03:57 37.01688 -121.83578 30545 ft 500 kts 136°
2026-04-24 03:58 36.99296 -121.80380 31041 ft 504 kts 136°
2026-04-24 03:58 36.96895 -121.77174 31526 ft 508 kts 137°
2026-04-24 03:58 36.94472 -121.73941 31992 ft 511 kts 137°
2026-04-24 03:58 36.92027 -121.70681 32443 ft 515 kts 137°
2026-04-24 03:59 36.89568 -121.67408 32903 ft 518 kts 137°
2026-04-24 03:59 36.87090 -121.64111 33345 ft 522 kts 137°
2026-04-24 03:59 36.84596 -121.60797 33779 ft 525 kts 137°
2026-04-24 03:59 36.82087 -121.57466 34234 ft 527 kts 137°
2026-04-24 04:00 36.79581 -121.54141 34794 ft 525 kts 137°
2026-04-24 04:00 36.77082 -121.50829 35318 ft 524 kts 137°
2026-04-24 04:00 36.74579 -121.47517 35816 ft 524 kts 137°
2026-04-24 04:00 36.72081 -121.44217 36261 ft 523 kts 138°
2026-04-24 04:01 36.69583 -121.40916 36717 ft 524 kts 138°
2026-04-24 04:01 36.67073 -121.37603 37164 ft 524 kts 138°
2026-04-24 04:01 36.64571 -121.34307 37622 ft 525 kts 138°
2026-04-24 04:01 36.62091 -121.31042 38047 ft 525 kts 138°
2026-04-24 04:02 36.59580 -121.27738 38451 ft 525 kts 138°
2026-04-24 04:02 36.57069 -121.24438 38830 ft 525 kts 138°
2026-04-24 04:02 36.54556 -121.21140 39148 ft 525 kts 138°
2026-04-24 04:02 36.52062 -121.17869 39470 ft 525 kts 138°
2026-04-24 04:03 36.49515 -121.14533 39785 ft 525 kts 138°
2026-04-24 04:03 36.47035 -121.11286 40112 ft 525 kts 139°
2026-04-24 04:03 36.44491 -121.07959 40452 ft 525 kts 139°
2026-04-24 04:03 36.42067 -121.04631 40754 ft 526 kts 135°
2026-04-24 04:04 36.39685 -121.01181 41037 ft 527 kts 136°
2026-04-24 04:04 36.34885 -120.94317 41066 ft 524 kts 136°
2026-04-24 04:05 36.30140 -120.87490 41060 ft 523 kts 136°
2026-04-24 04:05 36.25366 -120.80669 41055 ft 523 kts 136°
2026-04-24 04:06 36.20588 -120.73834 41046 ft 523 kts 136°
2026-04-24 04:06 36.15809 -120.67025 41045 ft 523 kts 136°
2026-04-24 04:07 36.11034 -120.60229 41050 ft 524 kts 136°
2026-04-24 04:07 36.06246 -120.53430 41039 ft 524 kts 136°
2026-04-24 04:08 36.01480 -120.46675 41045 ft 524 kts 136°
2026-04-24 04:08 35.96686 -120.39895 41045 ft 525 kts 136°
2026-04-24 04:09 35.91876 -120.33105 41037 ft 525 kts 136°
2026-04-24 04:09 35.86935 -120.26510 41064 ft 517 kts 146°
2026-04-24 04:10 35.81033 -120.21630 41051 ft 509 kts 155°
2026-04-24 04:10 35.74982 -120.17090 41049 ft 509 kts 155°
2026-04-24 04:11 35.65901 -120.10245 41051 ft 510 kts 155°
2026-04-24 04:11 35.59851 -120.05677 41041 ft 510 kts 155°
2026-04-24 04:12 35.53802 -120.01117 41039 ft 510 kts 155°
2026-04-24 04:12 35.47744 -119.96562 41040 ft 511 kts 155°
2026-04-24 04:13 35.41710 -119.92028 41036 ft 511 kts 155°
2026-04-24 04:13 35.35666 -119.87497 40619 ft 508 kts 155°
2026-04-24 04:14 35.32651 -119.85240 40055 ft 508 kts 156°
2026-04-24 04:14 35.29626 -119.82976 39435 ft 510 kts 154°
2026-04-24 04:14 35.26724 -119.80409 38826 ft 516 kts 149°
2026-04-24 04:14 35.23865 -119.77727 38072 ft 517 kts 149°
2026-04-24 04:15 35.21006 -119.75050 37296 ft 518 kts 149°
2026-04-24 04:15 35.18132 -119.72370 36516 ft 519 kts 149°
2026-04-24 04:15 35.15291 -119.69722 35754 ft 519 kts 149°
2026-04-24 04:15 35.12407 -119.67031 34925 ft 521 kts 148°
2026-04-24 04:16 35.09520 -119.64342 34094 ft 523 kts 148°
2026-04-24 04:16 35.06628 -119.61648 33484 ft 518 kts 148°
2026-04-24 04:16 35.03784 -119.58999 32896 ft 511 kts 148°
2026-04-24 04:16 35.00968 -119.56385 32316 ft 506 kts 148°
2026-04-24 04:17 34.98176 -119.53797 31723 ft 501 kts 148°
2026-04-24 04:17 34.95412 -119.51233 31143 ft 497 kts 148°
2026-04-24 04:17 34.92661 -119.48684 30573 ft 493 kts 148°
2026-04-24 04:17 34.89933 -119.46166 29995 ft 489 kts 148°
2026-04-24 04:18 34.87233 -119.43756 29361 ft 484 kts 149°
2026-04-24 04:18 34.84508 -119.41362 28728 ft 480 kts 149°
2026-04-24 04:18 34.81825 -119.38964 28108 ft 476 kts 148°
2026-04-24 04:18 34.79176 -119.36571 27604 ft 470 kts 148°
2026-04-24 04:19 34.76579 -119.34242 27341 ft 459 kts 149°
2026-04-24 04:19 34.74016 -119.31970 26934 ft 452 kts 149°
2026-04-24 04:19 34.71473 -119.29751 26477 ft 447 kts 149°
2026-04-24 04:19 34.68975 -119.27585 25705 ft 434 kts 149°
2026-04-24 04:20 34.66530 -119.25449 24449 ft 430 kts 149°
2026-04-24 04:20 34.64111 -119.23331 23522 ft 422 kts 149°
2026-04-24 04:20 34.61735 -119.21277 22194 ft 416 kts 149°
2026-04-24 04:20 34.59403 -119.19281 21555 ft 404 kts 149°
2026-04-24 04:21 34.57064 -119.17276 21157 ft 414 kts 149°
2026-04-24 04:21 34.54732 -119.15249 20689 ft 411 kts 148°
2026-04-24 04:21 34.52445 -119.13199 20220 ft 407 kts 148°
2026-04-24 04:21 34.50176 -119.11165 19770 ft 404 kts 148°
2026-04-24 04:22 34.47904 -119.09164 19311 ft 401 kts 148°
2026-04-24 04:22 34.45652 -119.07187 18864 ft 399 kts 148°
2026-04-24 04:22 34.43421 -119.05215 18414 ft 396 kts 148°
2026-04-24 04:22 34.41190 -119.03272 17938 ft 392 kts 149°
2026-04-24 04:23 34.39003 -119.01395 17489 ft 389 kts 149°
2026-04-24 04:23 34.36811 -118.99504 17059 ft 386 kts 149°
2026-04-24 04:23 34.34642 -118.97620 16651 ft 383 kts 148°
2026-04-24 04:23 34.32505 -118.95621 16222 ft 382 kts 147°
2026-04-24 04:24 34.30404 -118.93754 15796 ft 378 kts 148°
2026-04-24 04:24 34.28282 -118.91891 15371 ft 376 kts 147°
2026-04-24 04:24 34.26194 -118.89991 14949 ft 375 kts 146°
2026-04-24 04:24 34.24130 -118.88086 14545 ft 371 kts 146°
2026-04-24 04:25 34.22083 -118.86196 14136 ft 369 kts 146°
2026-04-24 04:25 34.20047 -118.84328 13705 ft 366 kts 146°
2026-04-24 04:25 34.18022 -118.82474 13283 ft 363 kts 146°
2026-04-24 04:25 34.16058 -118.80588 12880 ft 361 kts 140°
2026-04-24 04:26 34.14216 -118.78547 12491 ft 357 kts 141°
2026-04-24 04:26 34.12366 -118.76571 12083 ft 353 kts 141°
2026-04-24 04:26 34.10539 -118.74606 11708 ft 350 kts 141°
2026-04-24 04:26 34.08738 -118.72637 11311 ft 348 kts 140°
2026-04-24 04:27 34.06946 -118.70681 10910 ft 340 kts 141°
2026-04-24 04:27 34.05251 -118.68839 10530 ft 316 kts 141°
2026-04-24 04:27 34.03738 -118.67048 10197 ft 303 kts 128°
2026-04-24 04:27 34.02832 -118.64735 9919 ft 309 kts 102°
2026-04-24 04:28 34.02513 -118.62167 9546 ft 310 kts 96°
2026-04-24 04:28 34.02315 -118.59628 9169 ft 295 kts 95°
2026-04-24 04:28 34.02190 -118.58031 8957 ft 284 kts 96°
2026-04-24 04:28 34.01974 -118.55725 8642 ft 269 kts 96°
2026-04-24 04:29 34.01685 -118.52819 8284 ft 263 kts 96°
2026-04-24 04:29 34.01482 -118.50654 8006 ft 253 kts 96°
2026-04-24 04:29 34.01352 -118.49256 7817 ft 249 kts 96°
2026-04-24 04:29 34.01157 -118.47175 7548 ft 246 kts 96°
2026-04-24 04:30 34.01096 -118.45149 7276 ft 244 kts 80°
2026-04-24 04:30 34.01419 -118.43149 6969 ft 242 kts 76°
2026-04-24 04:30 34.01792 -118.41196 6614 ft 238 kts 76°
2026-04-24 04:30 34.02140 -118.39254 6245 ft 235 kts 77°
2026-04-24 04:31 34.02465 -118.37328 5868 ft 234 kts 78°
2026-04-24 04:31 34.02754 -118.35404 5488 ft 233 kts 84°
2026-04-24 04:31 34.02922 -118.33468 5120 ft 232 kts 81°
2026-04-24 04:31 34.03150 -118.31548 4751 ft 230 kts 81°
2026-04-24 04:32 34.03357 -118.29635 4368 ft 229 kts 82°
2026-04-24 04:32 34.03546 -118.27730 3990 ft 228 kts 82°
2026-04-24 04:32 34.03734 -118.25845 3644 ft 223 kts 82°
2026-04-24 04:32 34.03924 -118.23975 3618 ft 225 kts 82°
2026-04-24 04:33 34.04115 -118.22092 3610 ft 226 kts 82°
2026-04-24 04:33 34.04305 -118.20215 3609 ft 225 kts 82°
2026-04-24 04:33 34.04182 -118.18332 3605 ft 228 kts 112°
2026-04-24 04:33 34.03263 -118.16856 3593 ft 214 kts 146°
2026-04-24 04:34 34.02001 -118.16111 3581 ft 197 kts 159°
2026-04-24 04:34 34.00694 -118.15536 3588 ft 195 kts 161°
2026-04-24 04:34 33.99409 -118.15034 3576 ft 195 kts 173°
2026-04-24 04:34 33.98108 -118.15337 3596 ft 193 kts 214°
2026-04-24 04:35 33.97131 -118.16409 3622 ft 191 kts 229°
2026-04-24 04:35 33.96264 -118.17614 3619 ft 190 kts 232°
2026-04-24 04:35 33.95740 -118.19061 3330 ft 191 kts 263°
2026-04-24 04:35 33.95534 -118.20632 3012 ft 187 kts 263°
2026-04-24 04:36 33.95367 -118.22175 2743 ft 185 kts 264°
2026-04-24 04:36 33.95211 -118.23704 2493 ft 183 kts 264°
2026-04-24 04:36 33.95061 -118.25227 2231 ft 182 kts 264°
2026-04-24 04:36 33.94910 -118.26719 1997 ft 176 kts 264°
2026-04-24 04:37 33.94762 -118.28160 1745 ft 171 kts 264°
2026-04-24 04:37 33.94620 -118.29560 1495 ft 166 kts 264°
2026-04-24 04:37 33.94485 -118.30885 1276 ft 152 kts 264°
2026-04-24 04:37 33.94362 -118.32102 1085 ft 140 kts 263°
2026-04-24 04:38 33.94248 -118.33235 935 ft 136 kts 263°
2026-04-24 04:38 33.94133 -118.34356 778 ft 136 kts 263°
2026-04-24 04:38 33.94020 -118.35463 605 ft 135 kts 263°
2026-04-24 04:38 33.93915 -118.36585 430 ft 138 kts 263°
2026-04-24 04:39 33.93801 -118.37694 246 ft 131 kts 261°
2026-04-24 04:39 33.93686 -118.38776 152 ft 124 kts 261°
2026-04-24 04:39 33.93583 -118.39714 132 ft 97 kts 265°
2026-04-24 04:39 33.93520 -118.40357 130 ft 58 kts 263°
2026-04-24 04:40 33.93481 -118.40677 129 ft 21 kts 245°
2026-04-24 04:40 33.93395 -118.40704 130 ft 7 kts 148°
2026-04-24 04:40 33.93385 -118.40655 123 ft 12 kts 98°
2026-04-24 04:40 33.93393 -118.40467 129 ft 33 kts 82°
2026-04-24 04:41 33.93421 -118.40189 132 ft 34 kts 84°
2026-04-24 04:41 33.93445 -118.39912 132 ft 28 kts 82°
2026-04-24 04:41 33.93444 -118.39819 126 ft 2 kts 128°
2026-04-24 04:41 33.93432 -118.39814 130 ft 4 kts 164°
2026-04-24 04:42 33.93367 -118.39817 124 ft 10 kts 181°
2026-04-24 04:42 33.93322 -118.39825 132 ft 3 kts 211°
2026-04-24 04:42 33.93317 -118.39838 124 ft 2 kts 246°
2026-04-24 04:42 33.93316 -118.39851 128 ft 0 kts 262°